TimeCST,TemperatureF,Dew PointF,Humidity,Sea Level PressureIn,VisibilityMPH,Wind Direction,Wind SpeedMPH,Gust SpeedMPH,PrecipitationIn,Events,Conditions,WindDirDegrees,DateUTC
12:37 AM,33.8,32.0,93,30.08,1.2,North,3.5,-,N/A,,Overcast,350,2013-01-01 06:37:00
12:52 AM,33.1,32.0,96,30.09,1.0,North,3.5,-,N/A,,Overcast,350,2013-01-01 06:52:00
1:01 AM,33.8,32.0,93,30.08,0.8,Calm,Calm,-,N/A,,Overcast,0,2013-01-01 07:01:00
1:16 AM,33.8,32.0,93,30.08,1.0,Calm,Calm,-,N/A,,Overcast,0,2013-01-01 07:16:00
1:31 AM,33.8,32.0,93,30.08,0.5,NNW,3.5,-,N/A,Fog,Fog,340,2013-01-01 07:31:00
1:52 AM,33.1,32.0,96,30.10,0.5,NNW,3.5,-,N/A,Fog,Fog,330,2013-01-01 07:52:00
2:21 AM,33.8,32.0,93,30.10,1.0,North,5.8,-,N/A,,Mist,350,2013-01-01 08:21:00
2:37 AM,33.8,32.0,93,30.10,3.0,North,6.9,-,N/A,,Overcast,360,2013-01-01 08:37:00
2:52 AM,33.1,32.0,96,30.11,4.0,North,5.8,-,N/A,,Overcast,10,2013-01-01 08:52:00
3:52 AM,33.1,30.9,92,30.12,7.0,North,5.8,-,N/A,,Overcast,360,2013-01-01 09:52:00
4:52 AM,33.1,30.9,92,30.12,5.0,North,6.9,-,N/A,,Overcast,360,2013-01-01 10:52:00
5:52 AM,32.0,28.9,88,30.12,7.0,North,6.9,-,N/A,,Overcast,10,2013-01-01 11:52:00
6:52 AM,30.9,28.0,89,30.14,6.0,North,9.2,-,N/A,,Overcast,350,2013-01-01 12:52:00
7:52 AM,30.0,27.0,88,30.18,4.0,NNW,10.4,-,N/A,,Overcast,330,2013-01-01 13:52:00
9:41 AM,28.4,24.8,86,30.19,4.0,North,9.2,-,N/A,,Haze,350,2013-01-01 15:41:00
9:52 AM,28.0,23.0,81,30.20,4.0,NNW,11.5,-,N/A,,Haze,340,2013-01-01 15:52:00
10:52 AM,27.0,21.0,78,30.21,5.0,NNW,11.5,-,N/A,,Haze,340,2013-01-01 16:52:00
11:52 AM,26.1,19.9,78,30.24,5.0,NNW,9.2,-,N/A,,Haze,330,2013-01-01 17:52:00
12:07 PM,26.6,19.4,74,30.22,5.0,NNW,9.2,-,N/A,,Haze,330,2013-01-01 18:07:00
12:22 PM,26.6,19.4,74,30.21,4.0,NW,10.4,-,N/A,,Haze,320,2013-01-01 18:22:00
12:52 PM,26.1,19.9,78,30.18,4.0,NNW,8.1,-,N/A,,Haze,340,2013-01-01 18:52:00
1:52 PM,26.1,19.9,78,30.17,4.0,NNW,9.2,-,N/A,,Haze,330,2013-01-01 19:52:00
2:52 PM,26.1,19.9,78,30.20,4.0,NNW,11.5,-,N/A,,Haze,330,2013-01-01 20:52:00
3:52 PM,26.1,19.0,75,30.20,5.0,NNW,9.2,-,N/A,,Haze,340,2013-01-01 21:52:00
4:29 PM,26.6,19.4,74,30.20,5.0,NNW,10.4,-,N/A,,Haze,330,2013-01-01 22:29:00
4:52 PM,25.0,19.0,78,30.22,6.0,NNW,11.5,-,N/A,,Haze,330,2013-01-01 22:52:00
5:09 PM,24.8,19.4,80,30.21,7.0,NNW,12.7,-,N/A,,Overcast,330,2013-01-01 23:09:00
5:52 PM,25.0,18.0,75,30.25,8.0,NNW,8.1,-,N/A,,Overcast,330,2013-01-01 23:52:00
6:52 PM,25.0,18.0,75,30.25,9.0,NNW,8.1,-,N/A,,Overcast,330,2013-01-02 00:52:00
7:52 PM,25.0,17.1,72,30.25,9.0,NNW,9.2,-,N/A,,Mostly Cloudy,340,2013-01-02 01:52:00
8:52 PM,24.1,17.1,75,30.25,9.0,North,8.1,-,N/A,,Clear,350,2013-01-02 02:52:00
9:52 PM,23.0,15.1,72,30.27,10.0,North,6.9,-,N/A,,Clear,350,2013-01-02 03:52:00
10:52 PM,21.9,12.9,68,30.28,10.0,North,6.9,-,N/A,,Clear,360,2013-01-02 04:52:00
11:52 PM,19.9,12.0,71,30.27,10.0,North,6.9,-,N/A,,Clear,350,2013-01-02 05:52:00